Delta Virtual Airport Information Service

Philadelphia International Airport

ICAO: KPHL Country: United States
Latitude: 39.8719 Longitude: -75.2411
Latest Arrival : UPS9601 (C) (KBOS-KPHL) Latest Departure : ACA7045 (KPHL-CYYZ)


WX CaptureLIVE
Data provided by noaa.gov | Fetched at 04:39:42

METAR : KPHL 030954Z 28010KT 10SM CLR 08/M02 A2987 RMK AO2 SLP115 T00831017

TAF : KPHL 030849Z 0309/0412 30010G18KT P6SM SCT050 FM031400 29012G21KT P6SM SCT050 FM032100 30008KT P6SM SCT050 FM040200 VRB03KT P6SM BKN045


Runway Data for KPHL
Data provided by openaviationdata.com

Runway ID Mag Var Hdg Length Elevation Surface ILS Freq ILS Id ILS Slope
8 -10 85° 4993 ft 36 ft Asphalt -- -- --
09L -10 85° 9488 ft 36 ft Concrete 108.95 IVII 3
09R -10 85° 10486 ft 36 ft Asphalt 109.3 IPHL 3
17 -10 169° 6503 ft 36 ft Concrete 108.75 IMYY 3
26 -10 265° 4993 ft 36 ft Asphalt 111.55 ILLH 3
27L -10 265° 10486 ft 36 ft Asphalt 109.3 IGLC 3
27R -10 265° 9488 ft 36 ft Concrete 108.95 IPDP 3
35 -10 349° 6503 ft 36 ft Concrete -- -- --

Philadelphia International Airport, United States
Use only for reference purposes



Not for navigational purposes.